Tracking 20242 objects as of 24-Jan-2020
HD Live streaming from Space Station
objects crossing your sky now

METEOR 3-5

Track METEOR 3-5 now!
10-day predictions
METEOR 3-5 is classified as:


NORAD ID: 21655
Int'l Code: 1991-056A
Perigee: 1,193.3 km
Apogee: 1,212.7 km
Inclination: 82.6 °
Period: 109.3 minutes
Semi major axis: 7573 km
RCS: 4.9525 m2 (large)
Launch date: August 15, 1991
Source: Commonwealth of Independent States (former USSR) (CIS)
Launch site: PLESETSK MISSILE AND SPACE COMPLEX (PKMTR)
aabbcc
Your satellite tracking list
Your tracking list is empty




NASA's NSSDC Master Catalog

Two Line Element Set (TLE):
1 21655U 91056A   20023.56065723 -.00000062 +00000-0 -19180-3 0  9993
2 21655 082.5576 350.4876 0012757 216.7878 143.2370 13.17090963367126
Source of the keplerian elements: AFSPC